Regional Weather Roundup
Issued by NWS

Home | Current Version | Previous Version | Graphics & Text | Print | Product List | Glossary On
Versions: 1 2 3 4 5 6 7 8 9 10 11 12 13 14 15 16 17 18 19 20 21 22 23 24 25 26 27 28
000
ASUS45 KTFX 211410
RWRMT
MONTANA REGIONAL WEATHER ROUNDUP
NATIONAL WEATHER SERVICE GREAT FALLS MT
800 AM MDT THU SEP 21 2017

NOTE: "FAIR" INDICATES FEW OR NO CLOUDS BELOW 12000 FEET WITH NO
SIGNIFICANT WEATHER AND/OR OBSTRUCTIONS TO VISIBILITY.

MTZ001>007-043-211500-
WEST OF THE DIVIDE

CITY           SKY/WX    TMP DP  RH WIND       PRES   REMARKS
KALISPELL      PTCLDY    36  36 100 CALM      29.80R
MISSOULA       CLOUDY    41  39  93 E5        29.82S
BUTTE          CLOUDY    32  31  96 SE5       29.81R
MULLAN PASS    CLOUDY    29  28  96 VRB3      29.79R
ANACONDA         N/A     34  27  75 S3        29.81S
DEER LODGE       N/A     32  30  93 E3        29.83R
EUREKA           N/A     43  36  75 CALM      29.80R
HAMILTON         N/A     37  32  81 S8          N/A  WCI  31
LIBBY            N/A     32  32 100 CALM      29.82R
$$

MTZ008-052>055-211500-
SOUTHWEST MONTANA

CITY           SKY/WX    TMP DP  RH WIND       PRES   REMARKS
BOZEMAN        CLOUDY    42  38  85 CALM      29.81R
DILLON         CLOUDY    38  32  79 CALM      29.79R
W YELLOWSTONE  LGT SNOW  32  32 100 MISG      29.80S
ENNIS          CLOUDY    39  36  87 N6        29.83S
THREE FORKS      N/A     40  35  82 CALM      29.82R
$$

MTZ009-010-012-014-046-048-049-054-211500-
EAST SLOPES AND CENTRAL MONTANA

CITY           SKY/WX    TMP DP  RH WIND       PRES   REMARKS
CUT BANK       PTCLDY    29  27  92 NW5       29.79R
GREAT FALLS    CLOUDY    36  29  75 E6        29.79R WCI  31
MALMSTROM AFB  PTCLDY    37  31  79 W3        29.79R
HELENA         CLOUDY    39  32  76 NW5       29.80R
BOWMANS CRNR     N/A     34  29  80 S8        29.76R WCI  28
CHOTEAU          N/A     32  28  86 N8        29.79S WCI  25
FAIRFIELD        N/A     37  28  71 N5        29.76F
POWER            N/A     32  29  91 N3        29.77S
RAYNESFORD     MOCLDY    41  27  56 E5        29.78S
ULM              N/A     38  30  74 NE6       29.78R
$$

MTZ011-013-016-021-045-047-050-051-211500-
NORTH CENTRAL MONTANA

CITY           SKY/WX    TMP DP  RH WIND       PRES   REMARKS
HAVRE          CLOUDY    37  34  89 SW5       29.79R
LEWISTOWN      CLOUDY    40  32  73 SW6       29.78R
N BAR RANCH    MOCLDY    43  27  52 NW7       29.80S
CHINOOK          N/A     39  34  81 W5        29.77S
DENTON           N/A     41  31  67 N6        29.74R
GEYSER         MOCLDY    38  30  70 SW5       29.77S
GRASS RANGE      N/A     44  30  57 W9        29.74R
JUDITH GAP     MOCLDY    39  29  66 NW15      29.77R WCI  31
WINIFRED         N/A     42  32  67 NW7       29.77R
$$

MTZ017>020-022>027-061-062-211500-
NORTHEAST MONTANA

CITY           SKY/WX    TMP DP  RH WIND       PRES   REMARKS
GLASGOW        CLOUDY    45  37  73 NW6       29.72R
JORDAN           N/A     48  38  68 W6        29.73R
WOLF POINT     CLOUDY    50  40  68 W10       29.69S
MALTA          CLEAR     45  34  65 W12       29.73S
POPLAR           N/A     48  41  76 W6        29.70R
$$

MTZ028>42-056>058-211500-
SOUTHCENTRAL AND SOUTHEAST MONTANA

CITY           SKY/WX    TMP DP  RH WIND       PRES   REMARKS
BAKER          CLOUDY    53  38  56 NW9       29.71R
BILLINGS       LGT RAIN  45  43  93 E6        29.77R
LIVINGSTON     CLOUDY    42  39  89 NW6       29.79R
MILES CITY     CLOUDY    49  41  74 NW10      29.71S
BIG TIMBER     CLOUDY    45  37  76 CALM      29.81R
HARLOWTON      CLOUDY    42  30  62 MISG      29.78R
LAUREL           N/A     46  45  93 NE8       29.78R
$$

REGIONAL REPORTS...DAKOTAS

CITY           SKY/WX    TMP DP  RH WIND       PRES   REMARKS
WILLISTON      CLOUDY    48  42  80 SW5       29.70R
MINOT          LGT RAIN  56  45  66 NW8       29.66S
DICKINSON      CLOUDY    54  42  64 NW8       29.66R
BEACH            N/A     52  37  58 NW13G20   29.72R
CROSBY           N/A     48  41  76 SW8       29.68R
BISMARCK       CLOUDY    60  46  59 SE18      29.70R
GRAND FORKS    CLOUDY    61  50  67 S21G29    29.81R
FARGO          SUNNY     58  49  72 S18G30    29.85S
BUFFALO SD       N/A     57  38  48 N7        29.60S
RAPID CITY     SUNNY     57  39  51 S12       29.66S
$$

REGIONAL REPORTS...WYOMING/IDAHO/WASHINGTON

CITY           SKY/WX    TMP DP  RH WIND       PRES   REMARKS
GILLETTE       SUNNY     50  37  61 N15       29.73R
SHERIDAN       PTSUNNY   49  41  74 NW12      29.76R
BUFFALO WY     SUNNY     48  37  65 N10       29.77R
CODY           LGT RAIN  42  40  92 NE8       29.76R
IDAHO FALLS    LGT RAIN  40  39  97 S7        29.80R
SALMON         CLOUDY    37  36  96 CALM      29.83R
BOISE          CLOUDY    47  45  93 CALM      29.82R
SPOKANE        RAIN      42  42 100 SW8       29.84R FOG
$$

REGIONAL REPORTS...ALBERTA

CITY           SKY/WX    TMP DP  RH WIND       PRES   REMARKS
EDMONTON       LGT RAIN  36  36 100 NW12G20   29.75R WCI  27
CALGARY        LGT RAIN  36  34  93 W10G20    29.77R WCI  28
LETHBRIDGE     CLOUDY    39  32  75 SW5       29.79R
MEDICINE HAT   MOCLDY    36  32  87 SW10      29.76R WCI  28
$$

REGIONAL REPORTS...SASKATCHEWAN

CITY           SKY/WX    TMP DP  RH WIND       PRES   REMARKS
SWIFT CURRENT  CLOUDY    36  32  87 W14       29.70R WCI  27
REGINA         PTSUNNY   37  32  81 W5        29.68R
SASKATOON      PTCLDY    36  34  93 SW9       29.64R WCI  29
$$




USA.gov is the U.S. government's official web portal to all federal, state and local government web resources and services.